Location: Unspecified
(0.0000°N, 0.0000°E)
Time: 10:08:30
(UTC+01:00)

Cosmos 1892 Rocket - Visible Passes

Search period start: 24 November 2014 00:00
Search period end: 04 December 2014 00:00
Orbit: 608 x 634 km, 82.5° (Epoch: 24 November)

Date Brightness Start Highest point End Pass type
(mag) Time Alt. Az. Time Alt. Az. Time Alt. Az.
24 Nov 7.0 05:57:45 10° ENE 05:58:41 11° E 05:59:36 10° E visible
24 Nov 6.4 19:42:12 10° SW 19:45:15 19° W 19:48:19 10° NW visible
25 Nov 6.1 06:13:04 10° NNE 06:16:41 25° E 06:20:16 10° SE visible
28 Nov 6.7 05:31:08 10° ENE 05:33:01 13° E 05:34:55 10° ESE visible
28 Nov 6.5 19:16:55 10° SW 19:19:36 16° W 19:22:17 10° NW visible
29 Nov 5.7 05:47:13 10° NNE 05:51:01 29° E 05:54:48 10° SE visible
30 Nov 3.9 06:04:38 10° N 06:09:00 70° E 06:13:21 10° S visible
02 Dec 6.5 05:04:53 10° NE 05:07:21 15° E 05:09:48 10° ESE visible
03 Dec 5.2 05:21:22 10° NNE 05:25:20 34° E 05:29:16 10° SSE visible
